Torna al catalogo

SENTINEL 1A

AttivoScienzaSSO
NORAD 39634·PAYLOAD·🇪🇺 EU

Lanciato Apr 3, 2014 da Guiana Space Centre

Loading…

Prossimi Passaggi (prossime 24 ore)

TLE

AggiornatoSource: Space-Track

Epoca: Sep 14, 2026, 13:34 UTC

1 39634U 14016A   26257.56545641 -.00000036  00000-0  21334-5 0  9993
2 39634  98.1587 263.7004 0001408  85.0608 275.0753 14.59804504663056

Traccia SENTINEL 1A in tempo reale con AllMySat

Download on the App Store